Location: Home
(42.5358°N, 72.7383°W)
Time: 05:28:13
(UTC-05:00)

A-11 Canister half - Pass Details

Date: 02 December 2021
Orbit: 1524 x 1684 km, 47.3° (Epoch: 17 January)

Event Time Altitude Azimuth Distance (km) Brightness Sun altitude
Exits shadow 02:59:28 59° 59° (ENE) 1,883 9.4 -44.0°
Drops below altitude 10° 03:07:05 10° 68° (ENE) 3,880 11.7 -42.6°
Sets 03:10:10 0° 69° (ENE) 4,848 12.4 -42.0°
